Overview Statistics Trail Chart Weather Telemetry Raw packets
 

This is the latest recevied weather packets stored in our database for station/object DL4MGC-10. If no packets are shown the sender has not sent any weather packets the latest 10 day(s).

<< 20 21 22 23 24 25 26 >>
Time Temp. Humidity Pressure Rain* Wind** Luminosity Snow
1788222413 18.33° C 77% 1021 hPa - - - -
1788221513 18.33° C 78% 1020.9 hPa - - - -
1788220613 18.33° C 78% 1021.1 hPa - - - -
1788219713 18.33° C 78% 1020.9 hPa - - - -
1788218813 17.78° C 81% 1021 hPa - - - -
1788217913 18.33° C 79% 1021 hPa - - - -
1788217012 18.33° C 77% 1021 hPa - - - -
1788216112 18.89° C 78% 1021 hPa - - - -
1788215212 18.33° C 78% 1020.9 hPa - - - -
1788214312 18.33° C 77% 1020.9 hPa - - - -
1788213412 18.89° C 73% 1020.8 hPa - - - -
1788212512 18.89° C 72% 1020.9 hPa - - - -
1788211612 19.44° C 70% 1020.7 hPa - - - -
1788210712 20° C 70% 1020.7 hPa - - - -
1788209812 20° C 69% 1020.5 hPa - - - -
1788208911 20° C 71% 1020.4 hPa - - - -
1788208011 20.56° C 70% 1020.3 hPa - - - -
1788207111 21.11° C 69% 1020.1 hPa - - - -
1788206211 21.11° C 68% 1019.8 hPa - - - -
1788205311 21.67° C 67% 1019.6 hPa - - - -
1788204411 21.67° C 64% 1019.3 hPa - - - -
1788203511 21.67° C 65% 1019.1 hPa - - - -
1788202611 22.22° C 63% 1018.8 hPa - - - -
1788201711 22.22° C 61% 1018.5 hPa - - - -
1788200811 22.78° C 60% 1018.2 hPa - - - -

* Rain since midnight (hover to see other rain measurements)
** Current wind speed in m/s (hover to see current wind gust speed)